Time,TemperatureF,DewpointF,PressureIn,WindDirection,WindDirectionDegrees,WindSpeedMPH,WindSpeedGustMPH,Humidity,HourlyPrecipIn,Conditions,Clouds,dailyrainin,SoftwareType,DateUTC
2013-01-18 00:00:00,60.7,42.9,30.19,NW,315,2.5,4.3,52,0.00,,,0.00,WUHU216HW,2013-01-17 21:00:00,
2013-01-18 00:05:00,60.5,42.8,30.19,WNW,293,2.5,3.8,52,0.00,,,0.00,WUHU216HW,2013-01-17 21:05:00,
2013-01-18 00:10:00,60.3,42.6,30.19,NW,315,2.0,3.8,52,0.00,,,0.00,WUHU216HW,2013-01-17 21:10:00,
2013-01-18 00:15:00,59.9,42.8,30.20,West,270,3.8,4.7,53,0.00,,,0.00,WUHU216HW,2013-01-17 21:15:00,
2013-01-18 00:20:00,59.8,42.6,30.19,WNW,293,2.2,4.7,53,0.00,,,0.00,WUHU216HW,2013-01-17 21:20:00,
2013-01-18 00:25:00,59.4,42.2,30.19,WNW,293,2.5,3.8,53,0.00,,,0.00,WUHU216HW,2013-01-17 21:25:00,
2013-01-18 00:30:00,59.4,42.2,30.19,WNW,293,1.3,2.9,53,0.00,,,0.00,WUHU216HW,2013-01-17 21:30:00,
2013-01-18 00:35:00,59.0,42.0,30.19,NW,315,1.8,2.5,53,0.00,,,0.00,WUHU216HW,2013-01-17 21:35:00,
2013-01-18 00:40:00,59.0,42.4,30.19,WNW,293,1.8,2.5,54,0.00,,,0.00,WUHU216HW,2013-01-17 21:40:00,
2013-01-18 00:45:00,58.9,42.2,30.18,NW,315,1.1,2.5,54,0.00,,,0.00,WUHU216HW,2013-01-17 21:45:00,
2013-01-18 00:50:00,58.9,42.2,30.18,NW,315,1.1,2.0,54,0.00,,,0.00,WUHU216HW,2013-01-17 21:50:00,
2013-01-18 00:55:00,58.7,42.0,30.18,WNW,293,1.3,1.6,54,0.00,,,0.00,WUHU216HW,2013-01-17 21:55:00,
2013-01-18 01:00:00,58.7,42.0,30.18,NW,315,0.9,1.6,54,0.00,,,0.00,WUHU216HW,2013-01-17 22:00:00,
2013-01-18 01:05:00,58.9,42.2,30.18,NW,315,1.3,1.6,54,0.00,,,0.00,WUHU216HW,2013-01-17 22:05:00,
2013-01-18 01:10:00,58.9,42.2,30.18,WNW,293,1.8,1.8,54,0.00,,,0.00,WUHU216HW,2013-01-17 22:10:00,
2013-01-18 01:15:00,58.9,42.2,30.18,NW,315,1.8,2.5,54,0.00,,,0.00,WUHU216HW,2013-01-17 22:15:00,
2013-01-18 01:20:00,58.9,42.2,30.18,NNW,338,1.8,2.5,54,0.00,,,0.00,WUHU216HW,2013-01-17 22:20:00,
2013-01-18 01:25:00,58.9,42.2,30.17,NW,315,1.8,2.0,54,0.00,,,0.00,WUHU216HW,2013-01-17 22:25:00,
2013-01-18 01:30:00,58.9,42.7,30.17,WNW,293,0.9,2.0,55,0.00,,,0.00,WUHU216HW,2013-01-17 22:30:00,
2013-01-18 01:35:00,58.9,42.7,30.17,WNW,293,1.6,1.8,55,0.00,,,0.00,WUHU216HW,2013-01-17 22:35:00,
2013-01-18 01:40:00,58.9,42.2,30.17,WNW,293,1.1,1.8,54,0.00,,,0.00,WUHU216HW,2013-01-17 22:40:00,
2013-01-18 01:45:00,58.9,42.2,30.17,WNW,293,0.0,1.6,54,0.00,,,0.00,WUHU216HW,2013-01-17 22:45:00,
2013-01-18 01:50:00,58.9,42.2,30.17,WNW,293,2.0,2.0,54,0.00,,,0.00,WUHU216HW,2013-01-17 22:50:00,
2013-01-18 01:55:00,58.7,42.0,30.16,WNW,293,0.9,2.5,54,0.00,,,0.00,WUHU216HW,2013-01-17 22:55:00,
2013-01-18 02:01:00,58.7,42.0,30.16,WNW,293,2.2,2.5,54,0.00,,,0.00,WUHU216HW,2013-01-17 23:01:00,
2013-01-18 02:06:00,58.5,42.4,30.17,NW,315,1.3,2.7,55,0.00,,,0.00,WUHU216HW,2013-01-17 23:06:00,
2013-01-18 02:11:00,58.3,42.2,30.16,NW,315,1.1,2.7,55,0.00,,,0.00,WUHU216HW,2013-01-17 23:11:00,
2013-01-18 02:16:00,58.1,42.0,30.16,NW,315,0.9,2.2,55,0.00,,,0.00,WUHU216HW,2013-01-17 23:16:00,
2013-01-18 02:21:00,58.0,41.9,30.15,NW,315,1.3,2.0,55,0.00,,,0.00,WUHU216HW,2013-01-17 23:21:00,
2013-01-18 02:26:00,58.0,41.9,30.15,WNW,293,1.8,2.2,55,0.00,,,0.00,WUHU216HW,2013-01-17 23:26:00,
2013-01-18 02:31:00,58.0,42.3,30.15,WNW,293,2.5,2.5,56,0.00,,,0.00,WUHU216HW,2013-01-17 23:31:00,
2013-01-18 02:36:00,58.0,42.3,30.15,WNW,293,2.0,2.9,56,0.00,,,0.00,WUHU216HW,2013-01-17 23:36:00,
2013-01-18 02:41:00,57.8,42.2,30.15,WNW,293,1.8,2.9,56,0.00,,,0.00,WUHU216HW,2013-01-17 23:41:00,
2013-01-18 02:46:00,57.6,41.6,30.15,WNW,293,1.1,2.2,55,0.00,,,0.00,WUHU216HW,2013-01-17 23:46:00,
2013-01-18 02:51:00,57.8,42.2,30.15,WNW,293,1.3,2.0,56,0.00,,,0.00,WUHU216HW,2013-01-17 23:51:00,
2013-01-18 02:56:00,57.8,42.2,30.15,WNW,293,2.5,2.7,56,0.00,,,0.00,WUHU216HW,2013-01-17 23:56:00,
2013-01-18 03:01:00,57.6,42.0,30.15,WNW,293,1.8,2.7,56,0.00,,,0.00,WUHU216HW,2013-01-18 00:01:00,
2013-01-18 03:06:00,57.6,42.0,30.15,NW,315,1.1,2.7,56,0.00,,,0.00,WUHU216HW,2013-01-18 00:06:00,
2013-01-18 03:11:00,57.4,41.9,30.15,WNW,293,1.1,2.2,56,0.00,,,0.00,WUHU216HW,2013-01-18 00:11:00,
2013-01-18 03:16:00,57.4,41.9,30.15,WNW,293,2.5,2.7,56,0.00,,,0.00,WUHU216HW,2013-01-18 00:16:00,
2013-01-18 03:21:00,57.2,41.7,30.15,NW,315,1.6,3.1,56,0.00,,,0.00,WUHU216HW,2013-01-18 00:21:00,
2013-01-18 03:26:00,57.1,41.9,30.15,NW,315,2.2,3.1,57,0.00,,,0.00,WUHU216HW,2013-01-18 00:26:00,
2013-01-18 03:31:00,56.9,41.8,30.15,WNW,293,2.5,2.5,57,0.00,,,0.00,WUHU216HW,2013-01-18 00:31:00,
2013-01-18 03:36:00,56.9,41.8,30.14,WNW,293,2.0,2.5,57,0.00,,,0.00,WUHU216HW,2013-01-18 00:36:00,
2013-01-18 03:41:00,56.7,42.1,30.14,WNW,293,2.2,2.5,58,0.00,,,0.00,WUHU216HW,2013-01-18 00:41:00,
2013-01-18 03:46:00,56.5,42.0,30.14,WNW,293,2.5,2.5,58,0.00,,,0.00,WUHU216HW,2013-01-18 00:46:00,
2013-01-18 03:51:00,56.5,42.0,30.14,WNW,293,2.5,2.5,58,0.00,,,0.00,WUHU216HW,2013-01-18 00:51:00,
2013-01-18 03:56:00,56.5,42.0,30.15,WNW,293,2.0,2.5,58,0.00,,,0.00,WUHU216HW,2013-01-18 00:56:00,
2013-01-18 04:01:00,56.3,42.2,30.15,WNW,293,2.0,2.5,59,0.00,,,0.00,WUHU216HW,2013-01-18 01:01:00,
2013-01-18 04:06:00,56.3,42.2,30.15,WNW,293,1.8,2.5,59,0.00,,,0.00,WUHU216HW,2013-01-18 01:06:00,
2013-01-18 04:11:00,56.3,42.2,30.15,WNW,293,1.6,2.5,59,0.00,,,0.00,WUHU216HW,2013-01-18 01:11:00,
2013-01-18 04:16:00,56.3,42.2,30.15,WNW,293,1.8,2.0,59,0.00,,,0.00,WUHU216HW,2013-01-18 01:16:00,
2013-01-18 04:21:00,56.3,42.2,30.15,West,270,2.7,2.7,59,0.00,,,0.00,WUHU216HW,2013-01-18 01:21:00,
2013-01-18 04:26:00,56.3,42.2,30.15,WNW,293,2.5,2.7,59,0.00,,,0.00,WUHU216HW,2013-01-18 01:26:00,
2013-01-18 04:31:00,56.2,42.5,30.16,WNW,293,2.9,3.4,60,0.00,,,0.00,WUHU216HW,2013-01-18 01:31:00,
2013-01-18 04:36:00,56.0,42.8,30.16,NW,315,2.5,3.4,61,0.00,,,0.00,WUHU216HW,2013-01-18 01:36:00,
2013-01-18 04:41:00,56.0,42.8,30.16,NW,315,1.8,3.4,61,0.00,,,0.00,WUHU216HW,2013-01-18 01:41:00,
2013-01-18 04:46:00,55.8,42.6,30.17,NW,315,3.4,3.8,61,0.00,,,0.00,WUHU216HW,2013-01-18 01:46:00,
2013-01-18 04:51:00,55.8,42.6,30.17,WNW,293,2.0,3.8,61,0.00,,,0.00,WUHU216HW,2013-01-18 01:51:00,
2013-01-18 04:56:00,55.8,42.6,30.17,NW,315,2.5,3.6,61,0.00,,,0.00,WUHU216HW,2013-01-18 01:56:00,
2013-01-18 05:01:00,55.8,42.6,30.17,WNW,293,2.5,3.1,61,0.00,,,0.00,WUHU216HW,2013-01-18 02:01:00,
2013-01-18 05:06:00,55.8,42.6,30.17,West,270,2.5,3.1,61,0.00,,,0.00,WUHU216HW,2013-01-18 02:06:00,
2013-01-18 05:11:00,55.8,42.6,30.17,West,270,1.3,3.1,61,0.00,,,0.00,WUHU216HW,2013-01-18 02:11:00,
2013-01-18 05:16:00,56.0,42.8,30.17,West,270,1.8,2.9,61,0.00,,,0.00,WUHU216HW,2013-01-18 02:16:00,
2013-01-18 05:21:00,56.0,42.8,30.17,West,270,2.5,2.5,61,0.00,,,0.00,WUHU216HW,2013-01-18 02:21:00,
2013-01-18 05:26:00,56.0,42.8,30.17,West,270,1.8,2.5,61,0.00,,,0.00,WUHU216HW,2013-01-18 02:26:00,
2013-01-18 05:31:00,56.2,42.9,30.17,West,270,2.5,2.5,61,0.00,,,0.00,WUHU216HW,2013-01-18 02:31:00,
2013-01-18 05:36:00,56.2,42.9,30.17,West,270,2.5,2.9,61,0.00,,,0.00,WUHU216HW,2013-01-18 02:36:00,
2013-01-18 05:41:00,56.2,42.9,30.17,West,270,1.8,2.9,61,0.00,,,0.00,WUHU216HW,2013-01-18 02:41:00,
2013-01-18 05:46:00,56.2,42.9,30.17,West,270,2.0,2.5,61,0.00,,,0.00,WUHU216HW,2013-01-18 02:46:00,
2013-01-18 05:51:00,56.2,42.9,30.17,WNW,293,1.8,2.5,61,0.00,,,0.00,WUHU216HW,2013-01-18 02:51:00,
2013-01-18 05:56:00,56.0,42.8,30.17,WNW,293,2.0,2.5,61,0.00,,,0.00,WUHU216HW,2013-01-18 02:56:00,
2013-01-18 06:01:00,56.0,42.8,30.17,West,270,2.0,2.5,61,0.00,,,0.00,WUHU216HW,2013-01-18 03:01:00,
2013-01-18 06:06:00,56.0,42.8,30.17,West,270,2.5,2.5,61,0.00,,,0.00,WUHU216HW,2013-01-18 03:06:00,
2013-01-18 06:11:00,56.0,42.8,30.17,West,270,2.2,2.5,61,0.00,,,0.00,WUHU216HW,2013-01-18 03:11:00,
2013-01-18 06:16:00,56.0,42.8,30.18,West,270,2.7,2.7,61,0.00,,,0.00,WUHU216HW,2013-01-18 03:16:00,
2013-01-18 06:21:00,56.0,42.8,30.18,West,270,2.0,2.9,61,0.00,,,0.00,WUHU216HW,2013-01-18 03:21:00,
2013-01-18 06:26:00,56.0,42.8,30.18,WNW,293,2.5,2.9,61,0.00,,,0.00,WUHU216HW,2013-01-18 03:26:00,
2013-01-18 06:31:00,56.0,42.8,30.18,NW,315,2.0,2.9,61,0.00,,,0.00,WUHU216HW,2013-01-18 03:31:00,
2013-01-18 06:36:00,56.0,42.8,30.19,WNW,293,1.6,2.9,61,0.00,,,0.00,WUHU216HW,2013-01-18 03:36:00,
2013-01-18 06:41:00,56.0,42.8,30.19,WNW,293,1.3,2.5,61,0.00,,,0.00,WUHU216HW,2013-01-18 03:41:00,
2013-01-18 06:46:00,56.0,42.8,30.19,NW,315,1.3,1.8,61,0.00,,,0.00,WUHU216HW,2013-01-18 03:46:00,
2013-01-18 06:51:00,56.0,43.1,30.20,WNW,293,2.0,2.0,62,0.00,,,0.00,WUHU216HW,2013-01-18 03:51:00,
2013-01-18 06:56:00,56.0,43.1,30.20,WNW,293,2.5,2.7,62,0.00,,,0.00,WUHU216HW,2013-01-18 03:56:00,
2013-01-18 07:01:00,55.8,42.9,30.20,WNW,293,2.5,2.7,62,0.00,,,0.00,WUHU216HW,2013-01-18 04:01:00,
2013-01-18 07:06:00,56.0,43.1,30.20,NW,315,1.1,2.7,62,0.00,,,0.00,WUHU216HW,2013-01-18 04:06:00,
2013-01-18 07:11:00,56.2,43.3,30.21,WNW,293,1.8,2.7,62,0.00,,,0.00,WUHU216HW,2013-01-18 04:11:00,
2013-01-18 07:16:00,56.2,43.3,30.21,WNW,293,2.2,2.5,62,0.00,,,0.00,WUHU216HW,2013-01-18 04:16:00,
2013-01-18 07:21:00,56.3,43.5,30.21,NW,315,1.8,2.5,62,0.00,,,0.00,WUHU216HW,2013-01-18 04:21:00,
2013-01-18 07:26:00,56.3,43.5,30.21,NW,315,1.8,2.5,62,0.00,,,0.00,WUHU216HW,2013-01-18 04:26:00,
2013-01-18 07:31:00,56.5,43.7,30.21,WNW,293,2.0,3.4,62,0.00,,,0.00,WUHU216HW,2013-01-18 04:31:00,
2013-01-18 07:36:00,56.9,44.0,30.22,West,270,2.0,3.4,62,0.00,,,0.00,WUHU216HW,2013-01-18 04:36:00,
2013-01-18 07:41:00,57.2,43.9,30.22,WNW,293,2.0,2.9,61,0.00,,,0.00,WUHU216HW,2013-01-18 04:41:00,
2013-01-18 07:46:00,57.4,44.1,30.22,NW,315,2.5,2.9,61,0.00,,,0.00,WUHU216HW,2013-01-18 04:46:00,
2013-01-18 07:51:00,58.0,44.2,30.22,WNW,293,2.5,2.7,60,0.00,,,0.00,WUHU216HW,2013-01-18 04:51:00,
2013-01-18 07:56:00,58.1,44.4,30.23,WNW,293,2.7,2.7,60,0.00,,,0.00,WUHU216HW,2013-01-18 04:56:00,
2013-01-18 08:01:00,58.3,44.1,30.23,WNW,293,2.2,2.7,59,0.00,,,0.00,WUHU216HW,2013-01-18 05:01:00,
2013-01-18 08:02:00,58.7,44.4,30.23,West,270,3.6,3.6,59,0.00,,,0.00,WUHU216HW,2013-01-18 05:02:00,
2013-01-18 08:07:00,58.9,44.1,30.23,West,270,2.5,3.8,58,0.00,,,0.00,WUHU216HW,2013-01-18 05:07:00,
2013-01-18 08:12:00,59.2,44.9,30.23,NW,315,2.0,3.4,59,0.00,,,0.00,WUHU216HW,2013-01-18 05:12:00,
2013-01-18 08:17:00,59.4,45.1,30.24,WNW,293,3.4,3.8,59,0.00,,,0.00,WUHU216HW,2013-01-18 05:17:00,
2013-01-18 08:22:00,59.6,44.7,30.23,WNW,293,2.5,4.0,58,0.00,,,0.00,WUHU216HW,2013-01-18 05:22:00,
2013-01-18 08:27:00,59.9,45.1,30.24,WNW,293,1.8,4.0,58,0.00,,,0.00,WUHU216HW,2013-01-18 05:27:00,
2013-01-18 08:32:00,60.3,45.5,30.24,WNW,293,1.8,3.6,58,0.00,,,0.00,WUHU216HW,2013-01-18 05:32:00,
2013-01-18 08:37:00,60.7,45.4,30.24,WNW,293,2.5,3.1,57,0.00,,,0.00,WUHU216HW,2013-01-18 05:37:00,
2013-01-18 08:42:00,61.0,45.7,30.24,WNW,293,1.6,3.1,57,0.00,,,0.00,WUHU216HW,2013-01-18 05:42:00,
2013-01-18 08:47:00,61.4,46.0,30.24,WNW,293,1.1,2.5,57,0.00,,,0.00,WUHU216HW,2013-01-18 05:47:00,
2013-01-18 08:52:00,61.7,46.4,30.24,West,270,0.4,1.8,57,0.00,,,0.00,WUHU216HW,2013-01-18 05:52:00,
2013-01-18 08:57:00,62.1,46.6,30.24,WNW,293,0.4,1.6,57,0.00,,,0.00,WUHU216HW,2013-01-18 05:57:00,
2013-01-18 09:02:00,62.3,46.4,30.24,NW,315,0.7,1.3,56,0.00,,,0.00,WUHU216HW,2013-01-18 06:02:00,
2013-01-18 09:07:00,62.8,46.4,30.24,WNW,293,2.2,2.5,55,0.00,,,0.00,WUHU216HW,2013-01-18 06:07:00,
2013-01-18 09:12:00,63.2,46.2,30.24,NW,315,2.5,2.7,54,0.00,,,0.00,WUHU216HW,2013-01-18 06:12:00,
2013-01-18 09:17:00,63.5,46.5,30.24,WNW,293,2.2,3.4,54,0.00,,,0.00,WUHU216HW,2013-01-18 06:17:00,
2013-01-18 09:22:00,63.7,46.2,30.24,West,270,1.1,4.0,53,0.00,,,0.00,WUHU216HW,2013-01-18 06:22:00,
2013-01-18 09:27:00,64.1,47.0,30.24,West,270,1.6,4.0,54,0.00,,,0.00,WUHU216HW,2013-01-18 06:27:00,
2013-01-18 09:32:00,64.3,46.6,30.24,WSW,248,1.3,3.8,53,0.00,,,0.00,WUHU216HW,2013-01-18 06:32:00,
2013-01-18 09:37:00,64.4,47.4,30.24,West,270,2.0,4.0,54,0.00,,,0.00,WUHU216HW,2013-01-18 06:37:00,
2013-01-18 09:43:00,64.6,47.5,30.23,SW,225,2.7,4.7,54,0.00,,,0.00,WUHU216HW,2013-01-18 06:43:00,
2013-01-18 09:48:00,64.8,47.2,30.23,WSW,248,3.4,4.7,53,0.00,,,0.00,WUHU216HW,2013-01-18 06:48:00,
2013-01-18 09:53:00,65.0,47.3,30.23,WSW,248,3.1,4.9,53,0.00,,,0.00,WUHU216HW,2013-01-18 06:53:00,
2013-01-18 09:58:00,64.8,46.7,30.23,NW,315,2.7,6.0,52,0.00,,,0.00,WUHU216HW,2013-01-18 06:58:00,
2013-01-18 10:03:00,64.8,46.2,30.23,WNW,293,3.4,6.0,51,0.00,,,0.00,WUHU216HW,2013-01-18 07:03:00,
2013-01-18 10:08:00,65.2,45.6,30.22,NW,315,1.1,5.6,49,0.00,,,0.00,WUHU216HW,2013-01-18 07:08:00,
2013-01-18 10:13:00,65.2,46.1,30.22,SW,225,1.6,5.6,50,0.00,,,0.00,WUHU216HW,2013-01-18 07:13:00,
2013-01-18 10:18:00,65.2,46.1,30.22,West,270,4.7,5.6,50,0.00,,,0.00,WUHU216HW,2013-01-18 07:18:00,
2013-01-18 10:23:00,65.2,45.6,30.22,WSW,248,2.0,6.9,49,0.00,,,0.00,WUHU216HW,2013-01-18 07:23:00,
2013-01-18 10:28:00,65.3,45.1,30.22,SE,135,0.9,6.9,48,0.00,,,0.00,WUHU216HW,2013-01-18 07:28:00,
2013-01-18 10:33:00,65.7,45.5,30.22,West,270,2.0,2.5,48,0.00,,,0.00,WUHU216HW,2013-01-18 07:33:00,
2013-01-18 10:38:00,65.7,43.1,30.22,NW,315,4.0,6.7,44,0.00,,,0.00,WUHU216HW,2013-01-18 07:38:00,
2013-01-18 10:43:00,65.9,43.8,30.21,West,270,1.8,6.7,45,0.00,,,0.00,WUHU216HW,2013-01-18 07:43:00,
2013-01-18 10:48:00,66.1,43.5,30.21,West,270,5.8,6.0,44,0.00,,,0.00,WUHU216HW,2013-01-18 07:48:00,
2013-01-18 10:53:00,66.1,44.7,30.21,WNW,293,4.7,5.8,46,0.00,,,0.00,WUHU216HW,2013-01-18 07:53:00,
2013-01-18 10:58:00,66.1,44.0,30.20,West,270,6.0,6.0,45,0.00,,,0.00,WUHU216HW,2013-01-18 07:58:00,
2013-01-18 11:03:00,66.4,44.4,30.20,SW,225,3.6,6.0,45,0.00,,,0.00,WUHU216HW,2013-01-18 08:03:00,
2013-01-18 11:08:00,66.4,44.9,30.19,WSW,248,0.4,6.0,46,0.00,,,0.00,WUHU216HW,2013-01-18 08:08:00,
2013-01-18 11:13:00,66.4,44.4,30.19,WSW,248,2.5,7.6,45,0.00,,,0.00,WUHU216HW,2013-01-18 08:13:00,
2013-01-18 11:18:00,66.6,43.3,30.18,North,0,3.8,7.6,43,0.00,,,0.00,WUHU216HW,2013-01-18 08:18:00,
2013-01-18 11:23:00,66.6,43.3,30.18,NW,315,3.4,6.7,43,0.00,,,0.00,WUHU216HW,2013-01-18 08:23:00,
2013-01-18 11:28:00,67.0,42.5,30.17,NNW,338,3.4,6.7,41,0.00,,,0.00,WUHU216HW,2013-01-18 08:28:00,
2013-01-18 11:33:00,67.0,43.7,30.17,WSW,248,1.8,4.0,43,0.00,,,0.00,WUHU216HW,2013-01-18 08:33:00,
2013-01-18 11:38:00,67.3,44.0,30.17,East,90,2.5,3.4,43,0.00,,,0.00,WUHU216HW,2013-01-18 08:38:00,
2013-01-18 11:43:00,67.5,44.7,30.17,SSE,158,1.8,3.8,44,0.00,,,0.00,WUHU216HW,2013-01-18 08:43:00,
2013-01-18 11:48:00,68.0,45.8,30.16,ESE,113,1.3,6.5,45,0.00,,,0.00,WUHU216HW,2013-01-18 08:48:00,
2013-01-18 11:53:00,68.0,45.8,30.16,ESE,113,2.0,6.5,45,0.00,,,0.00,WUHU216HW,2013-01-18 08:53:00,
2013-01-18 11:58:00,68.2,46.0,30.15,North,0,0.4,4.0,45,0.00,,,0.00,WUHU216HW,2013-01-18 08:58:00,
2013-01-18 12:03:00,68.4,46.2,30.15,ESE,113,1.3,3.1,45,0.00,,,0.00,WUHU216HW,2013-01-18 09:03:00,
2013-01-18 12:08:00,68.6,48.1,30.15,ESE,113,5.8,8.3,48,0.00,,,0.00,WUHU216HW,2013-01-18 09:08:00,
2013-01-18 12:13:00,68.4,47.4,30.14,SE,135,2.5,8.3,47,0.00,,,0.00,WUHU216HW,2013-01-18 09:13:00,
2013-01-18 12:18:00,68.4,47.4,30.14,SE,135,3.4,6.9,47,0.00,,,0.00,WUHU216HW,2013-01-18 09:18:00,
2013-01-18 12:23:00,68.4,47.9,30.13,SE,135,4.0,6.5,48,0.00,,,0.00,WUHU216HW,2013-01-18 09:23:00,
2013-01-18 12:28:00,68.2,48.3,30.13,SE,135,6.3,7.8,49,0.00,,,0.00,WUHU216HW,2013-01-18 09:28:00,
2013-01-18 12:33:00,68.2,47.8,30.13,SSE,158,6.9,8.3,48,0.00,,,0.00,WUHU216HW,2013-01-18 09:33:00,
2013-01-18 12:38:00,68.2,48.3,30.13,SE,135,4.7,8.5,49,0.00,,,0.00,WUHU216HW,2013-01-18 09:38:00,
2013-01-18 12:43:00,68.2,48.3,30.12,SE,135,5.4,8.5,49,0.00,,,0.00,WUHU216HW,2013-01-18 09:43:00,
2013-01-18 12:48:00,68.2,48.3,30.12,SSE,158,6.0,9.2,49,0.00,,,0.00,WUHU216HW,2013-01-18 09:48:00,
2013-01-18 12:53:00,68.4,48.5,30.12,ESE,113,6.3,9.2,49,0.00,,,0.00,WUHU216HW,2013-01-18 09:53:00,
2013-01-18 12:58:00,68.4,49.2,30.12,SSE,158,6.9,8.5,50,0.00,,,0.00,WUHU216HW,2013-01-18 09:58:00,
2013-01-18 13:03:00,68.4,49.2,30.12,SE,135,7.2,8.5,50,0.00,,,0.00,WUHU216HW,2013-01-18 10:03:00,
2013-01-18 13:08:00,68.2,49.4,30.11,ENE,68,6.3,8.3,51,0.00,,,0.00,WUHU216HW,2013-01-18 10:08:00,
2013-01-18 13:13:00,68.2,48.3,30.11,SSE,158,6.7,8.1,49,0.00,,,0.00,WUHU216HW,2013-01-18 10:13:00,
2013-01-18 13:18:00,68.0,48.2,30.11,ESE,113,7.6,9.8,49,0.00,,,0.00,WUHU216HW,2013-01-18 10:18:00,
2013-01-18 13:23:00,68.2,49.0,30.11,SE,135,7.6,9.8,50,0.00,,,0.00,WUHU216HW,2013-01-18 10:23:00,
2013-01-18 13:28:00,68.0,48.8,30.11,SE,135,7.8,9.4,50,0.00,,,0.00,WUHU216HW,2013-01-18 10:28:00,
2013-01-18 13:33:00,68.0,48.8,30.11,SE,135,5.8,9.2,50,0.00,,,0.00,WUHU216HW,2013-01-18 10:33:00,
2013-01-18 13:38:00,68.2,49.0,30.11,ESE,113,9.8,9.8,50,0.00,,,0.00,WUHU216HW,2013-01-18 10:38:00,
2013-01-18 13:43:00,68.2,49.0,30.11,ESE,113,6.5,9.8,50,0.00,,,0.00,WUHU216HW,2013-01-18 10:43:00,
2013-01-18 13:48:00,68.2,49.0,30.11,SE,135,7.6,9.8,50,0.00,,,0.00,WUHU216HW,2013-01-18 10:48:00,
2013-01-18 13:53:00,68.0,48.8,30.11,SE,135,4.7,9.8,50,0.00,,,0.00,WUHU216HW,2013-01-18 10:53:00,
2013-01-18 13:58:00,68.2,49.4,30.11,East,90,6.0,8.9,51,0.00,,,0.00,WUHU216HW,2013-01-18 10:58:00,
2013-01-18 14:03:00,68.2,49.4,30.11,SE,135,6.9,8.9,51,0.00,,,0.00,WUHU216HW,2013-01-18 11:03:00,
2013-01-18 14:08:00,67.9,48.6,30.11,SSE,158,8.9,9.8,50,0.00,,,0.00,WUHU216HW,2013-01-18 11:08:00,
2013-01-18 14:13:00,67.7,49.0,30.11,SE,135,4.7,9.8,51,0.00,,,0.00,WUHU216HW,2013-01-18 11:13:00,
2013-01-18 14:18:00,67.7,49.0,30.11,SE,135,6.5,8.3,51,0.00,,,0.00,WUHU216HW,2013-01-18 11:18:00,
2013-01-18 14:23:00,68.0,48.8,30.11,SE,135,6.9,8.1,50,0.00,,,0.00,WUHU216HW,2013-01-18 11:23:00,
2013-01-18 14:28:00,68.0,48.8,30.11,ESE,113,6.3,11.4,50,0.00,,,0.00,WUHU216HW,2013-01-18 11:28:00,
2013-01-18 14:33:00,68.0,48.8,30.11,SSE,158,8.1,11.4,50,0.00,,,0.00,WUHU216HW,2013-01-18 11:33:00,
2013-01-18 14:38:00,67.9,49.2,30.11,East,90,5.4,8.5,51,0.00,,,0.00,WUHU216HW,2013-01-18 11:38:00,
2013-01-18 14:43:00,67.7,48.4,30.11,East,90,6.7,8.5,50,0.00,,,0.00,WUHU216HW,2013-01-18 11:43:00,
2013-01-18 14:48:00,68.0,49.8,30.11,SE,135,7.2,7.4,52,0.00,,,0.00,WUHU216HW,2013-01-18 11:48:00,
2013-01-18 14:53:00,68.0,49.8,30.11,SE,135,7.4,7.4,52,0.00,,,0.00,WUHU216HW,2013-01-18 11:53:00,
2013-01-18 14:58:00,68.2,49.4,30.11,South,180,5.6,8.3,51,0.00,,,0.00,WUHU216HW,2013-01-18 11:58:00,
2013-01-18 15:03:00,68.0,49.2,30.11,ESE,113,4.7,8.3,51,0.00,,,0.00,WUHU216HW,2013-01-18 12:03:00,
2013-01-18 15:08:00,67.9,49.6,30.11,SSE,158,4.7,6.9,52,0.00,,,0.00,WUHU216HW,2013-01-18 12:08:00,
2013-01-18 15:13:00,67.9,49.2,30.11,SE,135,7.2,7.2,51,0.00,,,0.00,WUHU216HW,2013-01-18 12:13:00,
2013-01-18 15:18:00,67.9,49.2,30.11,East,90,5.1,7.2,51,0.00,,,0.00,WUHU216HW,2013-01-18 12:18:00,
2013-01-18 15:23:00,67.7,49.4,30.11,ESE,113,5.4,7.2,52,0.00,,,0.00,WUHU216HW,2013-01-18 12:23:00,
2013-01-18 15:28:00,67.7,49.4,30.11,SE,135,5.8,7.2,52,0.00,,,0.00,WUHU216HW,2013-01-18 12:28:00,
2013-01-18 15:33:00,67.5,49.2,30.11,SSE,158,5.4,6.3,52,0.00,,,0.00,WUHU216HW,2013-01-18 12:33:00,
2013-01-18 15:38:00,67.7,49.4,30.12,SE,135,4.7,6.7,52,0.00,,,0.00,WUHU216HW,2013-01-18 12:38:00,
2013-01-18 15:43:00,67.9,49.6,30.12,SSE,158,6.3,6.7,52,0.00,,,0.00,WUHU216HW,2013-01-18 12:43:00,
2013-01-18 15:48:00,67.9,49.6,30.12,ESE,113,5.4,7.6,52,0.00,,,0.00,WUHU216HW,2013-01-18 12:48:00,
2013-01-18 15:53:00,67.9,49.6,30.13,SE,135,6.5,8.1,52,0.00,,,0.00,WUHU216HW,2013-01-18 12:53:00,
2013-01-18 15:58:00,67.7,49.4,30.13,ESE,113,6.0,8.1,52,0.00,,,0.00,WUHU216HW,2013-01-18 12:58:00,
2013-01-18 16:03:00,67.7,49.4,30.13,SE,135,5.4,7.6,52,0.00,,,0.00,WUHU216HW,2013-01-18 13:03:00,
2013-01-18 16:08:00,67.5,49.2,30.13,SE,135,7.6,7.8,52,0.00,,,0.00,WUHU216HW,2013-01-18 13:08:00,
2013-01-18 16:13:00,67.3,49.6,30.14,ESE,113,5.6,7.8,53,0.00,,,0.00,WUHU216HW,2013-01-18 13:13:00,
2013-01-18 16:18:00,67.3,49.6,30.13,SE,135,4.5,6.9,53,0.00,,,0.00,WUHU216HW,2013-01-18 13:18:00,
2013-01-18 16:23:00,67.1,49.4,30.14,SE,135,5.4,6.9,53,0.00,,,0.00,WUHU216HW,2013-01-18 13:23:00,
2013-01-18 16:29:00,67.1,50.0,30.14,SSE,158,3.8,6.9,54,0.00,,,0.00,WUHU216HW,2013-01-18 13:29:00,
2013-01-18 16:34:00,67.0,49.8,30.14,SSE,158,3.6,6.5,54,0.00,,,0.00,WUHU216HW,2013-01-18 13:34:00,
2013-01-18 16:39:00,66.8,49.6,30.14,SSE,158,4.9,6.5,54,0.00,,,0.00,WUHU216HW,2013-01-18 13:39:00,
2013-01-18 16:44:00,66.6,49.4,30.14,SSE,158,5.1,6.0,54,0.00,,,0.00,WUHU216HW,2013-01-18 13:44:00,
2013-01-18 16:49:00,66.4,49.8,30.15,SSE,158,4.7,7.6,55,0.00,,,0.00,WUHU216HW,2013-01-18 13:49:00,
2013-01-18 16:54:00,66.1,49.4,30.15,ESE,113,5.8,7.6,55,0.00,,,0.00,WUHU216HW,2013-01-18 13:54:00,
2013-01-18 16:59:00,65.9,49.7,30.15,SE,135,6.0,7.6,56,0.00,,,0.00,WUHU216HW,2013-01-18 13:59:00,
2013-01-18 17:04:00,65.7,49.5,30.15,SE,135,4.5,7.6,56,0.00,,,0.00,WUHU216HW,2013-01-18 14:04:00,
2013-01-18 17:09:00,65.5,49.3,30.16,SE,135,1.8,6.3,56,0.00,,,0.00,WUHU216HW,2013-01-18 14:09:00,
2013-01-18 17:14:00,65.5,49.9,30.16,SSE,158,5.4,6.3,57,0.00,,,0.00,WUHU216HW,2013-01-18 14:14:00,
2013-01-18 17:19:00,65.3,49.1,30.16,ESE,113,4.5,6.3,56,0.00,,,0.00,WUHU216HW,2013-01-18 14:19:00,
2013-01-18 17:24:00,65.2,49.5,30.16,SE,135,3.4,6.7,57,0.00,,,0.00,WUHU216HW,2013-01-18 14:24:00,
2013-01-18 17:29:00,65.2,49.5,30.16,SE,135,4.0,6.7,57,0.00,,,0.00,WUHU216HW,2013-01-18 14:29:00,
2013-01-18 17:34:00,65.2,49.5,30.16,SSE,158,4.5,5.8,57,0.00,,,0.00,WUHU216HW,2013-01-18 14:34:00,
2013-01-18 17:39:00,65.0,49.8,30.16,SE,135,4.7,5.8,58,0.00,,,0.00,WUHU216HW,2013-01-18 14:39:00,
2013-01-18 17:44:00,65.0,49.8,30.16,SSE,158,4.5,5.8,58,0.00,,,0.00,WUHU216HW,2013-01-18 14:44:00,
2013-01-18 17:49:00,64.8,49.6,30.17,SSE,158,5.8,5.8,58,0.00,,,0.00,WUHU216HW,2013-01-18 14:49:00,
2013-01-18 17:54:00,64.8,49.6,30.17,SE,135,4.0,5.8,58,0.00,,,0.00,WUHU216HW,2013-01-18 14:54:00,
2013-01-18 17:59:00,64.8,49.6,30.17,SE,135,3.1,5.4,58,0.00,,,0.00,WUHU216HW,2013-01-18 14:59:00,
2013-01-18 18:04:00,64.6,49.4,30.17,SE,135,4.7,5.4,58,0.00,,,0.00,WUHU216HW,2013-01-18 15:04:00,
2013-01-18 18:09:00,64.6,50.0,30.17,SSE,158,3.4,5.4,59,0.00,,,0.00,WUHU216HW,2013-01-18 15:09:00,
2013-01-18 18:14:00,64.4,49.8,30.17,SSE,158,4.0,5.1,59,0.00,,,0.00,WUHU216HW,2013-01-18 15:14:00,
2013-01-18 18:19:00,64.4,49.8,30.17,SE,135,4.0,5.1,59,0.00,,,0.00,WUHU216HW,2013-01-18 15:19:00,
2013-01-18 18:24:00,64.4,49.8,30.17,SSE,158,3.1,4.7,59,0.00,,,0.00,WUHU216HW,2013-01-18 15:24:00,
2013-01-18 18:29:00,64.4,49.8,30.17,SSW,203,2.0,4.7,59,0.00,,,0.00,WUHU216HW,2013-01-18 15:29:00,
2013-01-18 18:34:00,64.4,49.8,30.17,SE,135,1.8,3.4,59,0.00,,,0.00,WUHU216HW,2013-01-18 15:34:00,
2013-01-18 18:39:00,64.3,49.6,30.17,SSE,158,4.0,4.9,59,0.00,,,0.00,WUHU216HW,2013-01-18 15:39:00,
2013-01-18 18:44:00,64.3,50.0,30.17,SE,135,3.4,4.9,60,0.00,,,0.00,WUHU216HW,2013-01-18 15:44:00,
2013-01-18 18:49:00,64.3,50.0,30.17,SSE,158,3.8,4.7,60,0.00,,,0.00,WUHU216HW,2013-01-18 15:49:00,
2013-01-18 18:54:00,64.1,49.9,30.17,ESE,113,3.4,4.7,60,0.00,,,0.00,WUHU216HW,2013-01-18 15:54:00,
2013-01-18 18:59:00,64.1,50.3,30.17,SE,135,3.4,4.5,61,0.00,,,0.00,WUHU216HW,2013-01-18 15:59:00,
2013-01-18 19:04:00,64.1,50.3,30.17,SSE,158,4.3,4.5,61,0.00,,,0.00,WUHU216HW,2013-01-18 16:04:00,
2013-01-18 19:09:00,64.1,50.8,30.17,SSE,158,3.4,5.4,62,0.00,,,0.00,WUHU216HW,2013-01-18 16:09:00,
2013-01-18 19:14:00,63.9,50.1,30.18,ESE,113,1.8,5.4,61,0.00,,,0.00,WUHU216HW,2013-01-18 16:14:00,
2013-01-18 19:19:00,63.9,50.1,30.18,SE,135,3.6,4.5,61,0.00,,,0.00,WUHU216HW,2013-01-18 16:19:00,
2013-01-18 19:24:00,63.9,50.1,30.18,ESE,113,0.4,3.6,61,0.00,,,0.00,WUHU216HW,2013-01-18 16:24:00,
2013-01-18 19:29:00,63.7,50.1,30.17,SE,135,1.3,2.9,61,0.00,,,0.00,WUHU216HW,2013-01-18 16:29:00,
2013-01-18 19:34:00,63.7,50.1,30.18,SE,135,0.2,2.9,61,0.00,,,0.00,WUHU216HW,2013-01-18 16:34:00,
2013-01-18 19:39:00,63.7,50.1,30.18,East,90,1.3,1.8,61,0.00,,,0.00,WUHU216HW,2013-01-18 16:39:00,
2013-01-18 19:44:00,63.7,50.1,30.18,East,90,0.9,1.3,61,0.00,,,0.00,WUHU216HW,2013-01-18 16:44:00,
2013-01-18 19:49:00,63.7,50.1,30.18,North,0,0.7,1.8,61,0.00,,,0.00,WUHU216HW,2013-01-18 16:49:00,
2013-01-18 19:54:00,63.7,50.1,30.17,ENE,68,0.9,1.8,61,0.00,,,0.00,WUHU216HW,2013-01-18 16:54:00,
2013-01-18 19:59:00,63.7,50.1,30.18,ESE,113,0.2,1.8,61,0.00,,,0.00,WUHU216HW,2013-01-18 16:59:00,
2013-01-18 20:04:00,63.5,49.9,30.18,ESE,113,0.2,1.8,61,0.00,,,0.00,WUHU216HW,2013-01-18 17:04:00,
2013-01-18 20:09:00,63.5,49.9,30.18,ESE,113,0.0,0.7,61,0.00,,,0.00,WUHU216HW,2013-01-18 17:09:00,
2013-01-18 20:14:00,63.4,49.7,30.18,ESE,113,0.0,0.7,61,0.00,,,0.00,WUHU216HW,2013-01-18 17:14:00,
2013-01-18 20:19:00,63.4,50.1,30.17,SE,135,0.4,1.3,62,0.00,,,0.00,WUHU216HW,2013-01-18 17:19:00,
2013-01-18 20:24:00,63.4,50.1,30.18,SE,135,0.9,1.6,62,0.00,,,0.00,WUHU216HW,2013-01-18 17:24:00,
2013-01-18 20:29:00,63.2,50.0,30.18,SE,135,0.0,1.6,62,0.00,,,0.00,WUHU216HW,2013-01-18 17:29:00,
2013-01-18 20:34:00,63.2,50.0,30.18,SE,135,0.0,1.1,62,0.00,,,0.00,WUHU216HW,2013-01-18 17:34:00,
2013-01-18 20:39:00,63.0,49.8,30.18,SE,135,0.0,0.4,62,0.00,,,0.00,WUHU216HW,2013-01-18 17:39:00,
2013-01-18 20:44:00,63.0,50.2,30.18,SE,135,0.0,0.0,63,0.00,,,0.00,WUHU216HW,2013-01-18 17:44:00,
2013-01-18 20:49:00,63.0,50.2,30.17,South,180,0.4,0.7,63,0.00,,,0.00,WUHU216HW,2013-01-18 17:49:00,
2013-01-18 20:54:00,63.0,50.2,30.18,South,180,0.2,0.7,63,0.00,,,0.00,WUHU216HW,2013-01-18 17:54:00,
2013-01-18 20:59:00,62.8,50.1,30.18,South,180,0.0,0.7,63,0.00,,,0.00,WUHU216HW,2013-01-18 17:59:00,
2013-01-18 21:04:00,62.8,50.4,30.18,South,180,0.0,0.7,64,0.00,,,0.00,WUHU216HW,2013-01-18 18:04:00,
2013-01-18 21:09:00,62.6,50.2,30.18,WNW,293,1.8,1.8,64,0.00,,,0.00,WUHU216HW,2013-01-18 18:09:00,
2013-01-18 21:14:00,62.5,50.1,30.18,WNW,293,1.3,1.8,64,0.00,,,0.00,WUHU216HW,2013-01-18 18:14:00,
2013-01-18 21:19:00,62.3,50.0,30.18,WNW,293,0.4,1.8,64,0.00,,,0.00,WUHU216HW,2013-01-18 18:19:00,
2013-01-18 21:24:00,62.3,50.0,30.18,WNW,293,0.0,1.3,64,0.00,,,0.00,WUHU216HW,2013-01-18 18:24:00,
2013-01-18 21:29:00,62.1,49.8,30.17,WNW,293,0.0,1.1,64,0.00,,,0.00,WUHU216HW,2013-01-18 18:29:00,
2013-01-18 21:34:00,62.1,49.8,30.17,WNW,293,0.0,0.0,64,0.00,,,0.00,WUHU216HW,2013-01-18 18:34:00,
2013-01-18 21:39:00,62.1,49.8,30.17,WNW,293,0.0,0.7,64,0.00,,,0.00,WUHU216HW,2013-01-18 18:39:00,
2013-01-18 21:44:00,62.1,49.8,30.17,WNW,293,0.9,0.9,64,0.00,,,0.00,WUHU216HW,2013-01-18 18:44:00,
2013-01-18 21:49:00,62.1,49.8,30.18,WNW,293,0.7,1.1,64,0.00,,,0.00,WUHU216HW,2013-01-18 18:49:00,
2013-01-18 21:54:00,61.9,49.6,30.18,WNW,293,0.0,1.1,64,0.00,,,0.00,WUHU216HW,2013-01-18 18:54:00,
2013-01-18 21:59:00,61.9,50.1,30.17,NW,315,2.0,2.5,65,0.00,,,0.00,WUHU216HW,2013-01-18 18:59:00,
2013-01-18 22:04:00,61.6,49.7,30.17,West,270,1.6,2.5,65,0.00,,,0.00,WUHU216HW,2013-01-18 19:04:00,
2013-01-18 22:09:00,61.6,49.3,30.17,West,270,0.0,2.2,64,0.00,,,0.00,WUHU216HW,2013-01-18 19:09:00,
2013-01-18 22:14:00,61.4,49.5,30.17,West,270,0.0,1.6,65,0.00,,,0.00,WUHU216HW,2013-01-18 19:14:00,
2013-01-18 22:19:00,61.4,49.5,30.17,West,270,0.0,0.2,65,0.00,,,0.00,WUHU216HW,2013-01-18 19:19:00,
2013-01-18 22:24:00,61.2,49.4,30.17,WSW,248,1.3,1.3,65,0.00,,,0.00,WUHU216HW,2013-01-18 19:24:00,
2013-01-18 22:29:00,61.4,49.2,30.17,SW,225,1.8,2.5,64,0.00,,,0.00,WUHU216HW,2013-01-18 19:29:00,
2013-01-18 22:34:00,61.4,49.5,30.17,SW,225,0.9,2.5,65,0.00,,,0.00,WUHU216HW,2013-01-18 19:34:00,
2013-01-18 22:39:00,61.4,49.5,30.16,SSW,203,0.7,2.2,65,0.00,,,0.00,WUHU216HW,2013-01-18 19:39:00,
2013-01-18 22:44:00,61.4,49.5,30.16,SSW,203,0.0,1.1,65,0.00,,,0.00,WUHU216HW,2013-01-18 19:44:00,
2013-01-18 22:49:00,61.4,49.5,30.16,SSW,203,0.0,0.9,65,0.00,,,0.00,WUHU216HW,2013-01-18 19:49:00,
2013-01-18 22:54:00,61.4,49.5,30.16,SSW,203,0.9,1.1,65,0.00,,,0.00,WUHU216HW,2013-01-18 19:54:00,
2013-01-18 22:59:00,61.4,49.5,30.16,SSW,203,0.7,1.1,65,0.00,,,0.00,WUHU216HW,2013-01-18 19:59:00,
2013-01-18 23:04:00,61.4,49.5,30.15,SSW,203,0.9,1.3,65,0.00,,,0.00,WUHU216HW,2013-01-18 20:04:00,
2013-01-18 23:09:00,61.2,49.4,30.15,SSE,158,0.9,1.8,65,0.00,,,0.00,WUHU216HW,2013-01-18 20:09:00,
2013-01-18 23:14:00,61.2,49.4,30.15,SSE,158,0.7,1.8,65,0.00,,,0.00,WUHU216HW,2013-01-18 20:14:00,
2013-01-18 23:19:00,61.2,49.4,30.15,SE,135,1.1,1.6,65,0.00,,,0.00,WUHU216HW,2013-01-18 20:19:00,
2013-01-18 23:24:00,61.0,49.2,30.15,SSE,158,1.1,1.8,65,0.00,,,0.00,WUHU216HW,2013-01-18 20:24:00,
2013-01-18 23:29:00,61.0,49.2,30.15,SSE,158,1.3,1.8,65,0.00,,,0.00,WUHU216HW,2013-01-18 20:29:00,
2013-01-18 23:34:00,61.0,49.2,30.15,SE,135,0.7,1.8,65,0.00,,,0.00,WUHU216HW,2013-01-18 20:34:00,
2013-01-18 23:39:00,60.8,49.1,30.15,SE,135,0.0,1.8,65,0.00,,,0.00,WUHU216HW,2013-01-18 20:39:00,
2013-01-18 23:44:00,60.8,49.1,30.15,SE,135,0.4,1.8,65,0.00,,,0.00,WUHU216HW,2013-01-18 20:44:00,
2013-01-18 23:49:00,60.8,49.1,30.15,SE,135,1.1,1.8,65,0.00,,,0.00,WUHU216HW,2013-01-18 20:49:00,
2013-01-18 23:54:00,60.8,49.1,30.14,SE,135,1.3,1.8,65,0.00,,,0.00,WUHU216HW,2013-01-18 20:54:00,
2013-01-18 23:59:00,60.8,49.1,30.14,SE,135,1.1,2.0,65,0.00,,,0.00,WUHU216HW,2013-01-18 20:59:00,